segment_id,date_local,uptime,ped_lft,ped_rgt,ped_total,bike_lft,bike_rgt,bike_total,car_lft,car_rgt,car_total,heavy_lft,heavy_rgt,heavy_total,v85,car_speed0,car_speed10,car_speed20,car_speed30,car_speed40,car_speed50,car_speed60,car_speed70
100024661,2021-12-01 00:00,1.0,,,,22,16,38,,,,,,,
100024661,2021-12-01 01:00,1.0,,,,14,12,26,,,,,,,
100024661,2021-12-01 02:00,1.0,,,,5,6,11,,,,,,,
100024661,2021-12-01 03:00,1.0,,,,1,4,5,,,,,,,
100024661,2021-12-01 04:00,1.0,,,,5,7,12,,,,,,,
100024661,2021-12-01 05:00,1.0,,,,11,18,29,,,,,,,
100024661,2021-12-01 06:00,1.0,,,,33,45,78,,,,,,,
100024661,2021-12-01 07:00,1.0,,,,82,110,192,,,,,,,
100024661,2021-12-01 08:00,1.0,,,,158,244,402,,,,,,,
100024661,2021-12-01 09:00,1.0,,,,159,194,353,,,,,,,
100024661,2021-12-01 10:00,1.0,,,,104,112,216,,,,,,,
100024661,2021-12-01 11:00,1.0,,,,113,101,214,,,,,,,
100024661,2021-12-01 12:00,1.0,,,,113,117,230,,,,,,,
100024661,2021-12-01 13:00,1.0,,,,123,116,239,,,,,,,
100024661,2021-12-01 14:00,1.0,,,,154,130,284,,,,,,,
100024661,2021-12-01 15:00,1.0,,,,183,167,350,,,,,,,
100024661,2021-12-01 16:00,1.0,,,,229,151,380,,,,,,,
100024661,2021-12-01 17:00,1.0,,,,245,178,423,,,,,,,
100024661,2021-12-01 18:00,1.0,,,,291,229,520,,,,,,,
100024661,2021-12-01 19:00,1.0,,,,256,173,429,,,,,,,
100024661,2021-12-01 20:00,1.0,,,,103,125,228,,,,,,,
100024661,2021-12-01 21:00,1.0,,,,79,75,154,,,,,,,
100024661,2021-12-01 22:00,1.0,,,,80,72,152,,,,,,,
100024661,2021-12-01 23:00,1.0,,,,54,56,110,,,,,,,
100024661,2021-12-02 00:00,1.0,,,,17,24,41,,,,,,,
100024661,2021-12-02 01:00,1.0,,,,12,7,19,,,,,,,
100024661,2021-12-02 02:00,1.0,,,,6,1,7,,,,,,,
100024661,2021-12-02 03:00,1.0,,,,2,6,8,,,,,,,
100024661,2021-12-02 04:00,1.0,,,,8,2,10,,,,,,,
100024661,2021-12-02 05:00,1.0,,,,12,22,34,,,,,,,
100024661,2021-12-02 06:00,1.0,,,,37,53,90,,,,,,,
100024661,2021-12-02 07:00,1.0,,,,112,166,278,,,,,,,
100024661,2021-12-02 08:00,1.0,,,,231,375,606,,,,,,,
100024661,2021-12-02 09:00,1.0,,,,241,308,549,,,,,,,
100024661,2021-12-02 10:00,1.0,,,,162,169,331,,,,,,,
100024661,2021-12-02 11:00,1.0,,,,178,150,328,,,,,,,
100024661,2021-12-02 12:00,1.0,,,,180,177,357,,,,,,,
100024661,2021-12-02 13:00,1.0,,,,193,190,383,,,,,,,
100024661,2021-12-02 14:00,1.0,,,,207,175,382,,,,,,,
100024661,2021-12-02 15:00,1.0,,,,280,195,475,,,,,,,
100024661,2021-12-02 16:00,1.0,,,,268,222,490,,,,,,,
100024661,2021-12-02 17:00,1.0,,,,315,235,550,,,,,,,
100024661,2021-12-02 18:00,1.0,,,,373,279,652,,,,,,,
100024661,2021-12-02 19:00,1.0,,,,264,207,471,,,,,,,
100024661,2021-12-02 20:00,1.0,,,,171,103,274,,,,,,,
100024661,2021-12-02 21:00,1.0,,,,91,75,166,,,,,,,
100024661,2021-12-02 22:00,1.0,,,,90,78,168,,,,,,,
100024661,2021-12-02 23:00,1.0,,,,52,65,117,,,,,,,
100024661,2021-12-03 00:00,1.0,,,,36,33,69,,,,,,,
100024661,2021-12-03 01:00,1.0,,,,12,18,30,,,,,,,
100024661,2021-12-03 02:00,1.0,,,,6,7,13,,,,,,,
100024661,2021-12-03 03:00,1.0,,,,5,6,11,,,,,,,
100024661,2021-12-03 04:00,1.0,,,,9,12,21,,,,,,,
100024661,2021-12-03 05:00,1.0,,,,13,19,32,,,,,,,
100024661,2021-12-03 06:00,1.0,,,,29,57,86,,,,,,,
100024661,2021-12-03 07:00,1.0,,,,94,145,239,,,,,,,
100024661,2021-12-03 08:00,1.0,,,,182,319,501,,,,,,,
100024661,2021-12-03 09:00,1.0,,,,203,272,475,,,,,,,
100024661,2021-12-03 10:00,1.0,,,,158,138,296,,,,,,,
100024661,2021-12-03 11:00,1.0,,,,128,143,271,,,,,,,
100024661,2021-12-03 12:00,1.0,,,,195,169,364,,,,,,,
100024661,2021-12-03 13:00,1.0,,,,200,184,384,,,,,,,
100024661,2021-12-03 14:00,1.0,,,,211,170,381,,,,,,,
100024661,2021-12-03 15:00,1.0,,,,257,189,446,,,,,,,
100024661,2021-12-03 16:00,1.0,,,,260,217,477,,,,,,,
100024661,2021-12-03 17:00,1.0,,,,288,206,494,,,,,,,
100024661,2021-12-03 18:00,1.0,,,,285,214,499,,,,,,,
100024661,2021-12-03 19:00,1.0,,,,206,179,385,,,,,,,
100024661,2021-12-03 20:00,1.0,,,,132,143,275,,,,,,,
100024661,2021-12-03 21:00,1.0,,,,78,88,166,,,,,,,
100024661,2021-12-03 22:00,1.0,,,,75,73,148,,,,,,,
100024661,2021-12-03 23:00,1.0,,,,49,52,101,,,,,,,
100024661,2021-12-04 00:00,1.0,,,,43,63,106,,,,,,,
100024661,2021-12-04 01:00,1.0,,,,36,40,76,,,,,,,
100024661,2021-12-04 02:00,1.0,,,,25,17,42,,,,,,,
100024661,2021-12-04 03:00,1.0,,,,12,9,21,,,,,,,
100024661,2021-12-04 04:00,1.0,,,,4,8,12,,,,,,,
100024661,2021-12-04 05:00,1.0,,,,11,6,17,,,,,,,
100024661,2021-12-04 06:00,1.0,,,,16,9,25,,,,,,,
100024661,2021-12-04 07:00,1.0,,,,15,8,23,,,,,,,
100024661,2021-12-04 08:00,1.0,,,,33,35,68,,,,,,,
100024661,2021-12-04 09:00,1.0,,,,74,63,137,,,,,,,
100024661,2021-12-04 10:00,1.0,,,,97,77,174,,,,,,,
100024661,2021-12-04 11:00,1.0,,,,121,87,208,,,,,,,
100024661,2021-12-04 12:00,1.0,,,,160,134,294,,,,,,,
100024661,2021-12-04 13:00,1.0,,,,253,178,431,,,,,,,
100024661,2021-12-04 14:00,1.0,,,,220,160,380,,,,,,,
100024661,2021-12-04 15:00,1.0,,,,208,181,389,,,,,,,
100024661,2021-12-04 16:00,1.0,,,,167,147,314,,,,,,,
100024661,2021-12-04 17:00,1.0,,,,135,130,265,,,,,,,
100024661,2021-12-04 18:00,1.0,,,,124,116,240,,,,,,,
100024661,2021-12-04 19:00,1.0,,,,134,116,250,,,,,,,
100024661,2021-12-04 20:00,1.0,,,,65,94,159,,,,,,,
100024661,2021-12-04 21:00,1.0,,,,49,52,101,,,,,,,
100024661,2021-12-04 22:00,1.0,,,,68,66,134,,,,,,,
100024661,2021-12-04 23:00,1.0,,,,45,57,102,,,,,,,
100024661,2021-12-05 00:00,1.0,,,,35,31,66,,,,,,,
100024661,2021-12-05 01:00,1.0,,,,20,22,42,,,,,,,
100024661,2021-12-05 02:00,1.0,,,,20,7,27,,,,,,,
100024661,2021-12-05 03:00,1.0,,,,9,15,24,,,,,,,
100024661,2021-12-05 04:00,1.0,,,,10,10,20,,,,,,,
100024661,2021-12-05 05:00,1.0,,,,8,3,11,,,,,,,
100024661,2021-12-05 06:00,1.0,,,,11,7,18,,,,,,,
100024661,2021-12-05 07:00,1.0,,,,9,5,14,,,,,,,
100024661,2021-12-05 08:00,1.0,,,,18,6,24,,,,,,,
100024661,2021-12-05 09:00,1.0,,,,29,34,63,,,,,,,
100024661,2021-12-05 10:00,1.0,,,,62,31,93,,,,,,,
100024661,2021-12-05 11:00,1.0,,,,52,58,110,,,,,,,
100024661,2021-12-05 12:00,1.0,,,,87,76,163,,,,,,,
100024661,2021-12-05 13:00,1.0,,,,91,96,187,,,,,,,
100024661,2021-12-05 14:00,1.0,,,,98,105,203,,,,,,,
100024661,2021-12-05 15:00,1.0,,,,122,102,224,,,,,,,
100024661,2021-12-05 16:00,1.0,,,,125,92,217,,,,,,,
100024661,2021-12-05 17:00,1.0,,,,135,86,221,,,,,,,
100024661,2021-12-05 18:00,1.0,,,,102,102,204,,,,,,,
100024661,2021-12-05 19:00,1.0,,,,77,86,163,,,,,,,
100024661,2021-12-05 20:00,1.0,,,,61,45,106,,,,,,,
100024661,2021-12-05 21:00,1.0,,,,56,58,114,,,,,,,
100024661,2021-12-05 22:00,1.0,,,,34,33,67,,,,,,,
100024661,2021-12-05 23:00,1.0,,,,23,27,50,,,,,,,
100024661,2021-12-06 00:00,1.0,,,,17,12,29,,,,,,,
100024661,2021-12-06 01:00,1.0,,,,10,8,18,,,,,,,
100024661,2021-12-06 02:00,1.0,,,,3,8,11,,,,,,,
100024661,2021-12-06 03:00,1.0,,,,3,4,7,,,,,,,
100024661,2021-12-06 04:00,1.0,,,,4,5,9,,,,,,,
100024661,2021-12-06 05:00,1.0,,,,8,16,24,,,,,,,
100024661,2021-12-06 06:00,1.0,,,,29,54,83,,,,,,,
100024661,2021-12-06 07:00,1.0,,,,108,153,261,,,,,,,
100024661,2021-12-06 08:00,1.0,,,,263,415,678,,,,,,,
100024661,2021-12-06 09:00,1.0,,,,225,313,538,,,,,,,
100024661,2021-12-06 10:00,1.0,,,,139,163,302,,,,,,,
100024661,2021-12-06 11:00,1.0,,,,136,143,279,,,,,,,
100024661,2021-12-06 12:00,1.0,,,,141,138,279,,,,,,,
100024661,2021-12-06 13:00,1.0,,,,131,156,287,,,,,,,
100024661,2021-12-06 14:00,1.0,,,,182,142,324,,,,,,,
100024661,2021-12-06 15:00,1.0,,,,230,199,429,,,,,,,
100024661,2021-12-06 16:00,1.0,,,,265,160,425,,,,,,,
100024661,2021-12-06 17:00,1.0,,,,338,226,564,,,,,,,
100024661,2021-12-06 18:00,1.0,,,,381,277,658,,,,,,,
100024661,2021-12-06 19:00,1.0,,,,234,193,427,,,,,,,
100024661,2021-12-06 20:00,1.0,,,,133,118,251,,,,,,,
100024661,2021-12-06 21:00,1.0,,,,96,90,186,,,,,,,
100024661,2021-12-06 22:00,1.0,,,,78,70,148,,,,,,,
100024661,2021-12-06 23:00,1.0,,,,44,36,80,,,,,,,
100024661,2021-12-07 00:00,1.0,,,,20,30,50,,,,,,,
100024661,2021-12-07 01:00,1.0,,,,7,13,20,,,,,,,
100024661,2021-12-07 02:00,1.0,,,,4,2,6,,,,,,,
100024661,2021-12-07 03:00,1.0,,,,3,4,7,,,,,,,
100024661,2021-12-07 04:00,1.0,,,,5,5,10,,,,,,,
100024661,2021-12-07 05:00,1.0,,,,11,25,36,,,,,,,
100024661,2021-12-07 06:00,1.0,,,,39,63,102,,,,,,,
100024661,2021-12-07 07:00,1.0,,,,106,181,287,,,,,,,
100024661,2021-12-07 08:00,1.0,,,,243,446,689,,,,,,,
100024661,2021-12-07 09:00,1.0,,,,257,348,605,,,,,,,
100024661,2021-12-07 10:00,1.0,,,,150,171,321,,,,,,,
100024661,2021-12-07 11:00,1.0,,,,136,132,268,,,,,,,
100024661,2021-12-07 12:00,1.0,,,,149,162,311,,,,,,,
100024661,2021-12-07 13:00,1.0,,,,171,162,333,,,,,,,
100024661,2021-12-07 14:00,1.0,,,,168,175,343,,,,,,,
100024661,2021-12-07 15:00,1.0,,,,252,167,419,,,,,,,
100024661,2021-12-07 16:00,1.0,,,,280,183,463,,,,,,,
100024661,2021-12-07 17:00,1.0,,,,319,243,562,,,,,,,
100024661,2021-12-07 18:00,1.0,,,,392,276,668,,,,,,,
100024661,2021-12-07 19:00,1.0,,,,279,228,507,,,,,,,
100024661,2021-12-07 20:00,1.0,,,,127,103,230,,,,,,,
100024661,2021-12-07 21:00,1.0,,,,94,82,176,,,,,,,
100024661,2021-12-07 22:00,1.0,,,,85,82,167,,,,,,,
100024661,2021-12-07 23:00,1.0,,,,56,51,107,,,,,,,
100024661,2021-12-08 00:00,1.0,,,,29,28,57,,,,,,,
100024661,2021-12-08 01:00,1.0,,,,16,17,33,,,,,,,
100024661,2021-12-08 02:00,1.0,,,,6,6,12,,,,,,,
100024661,2021-12-08 03:00,1.0,,,,5,2,7,,,,,,,
100024661,2021-12-08 04:00,1.0,,,,5,8,13,,,,,,,
100024661,2021-12-08 05:00,1.0,,,,9,20,29,,,,,,,
100024661,2021-12-08 06:00,1.0,,,,31,44,75,,,,,,,
100024661,2021-12-08 07:00,1.0,,,,120,175,295,,,,,,,
100024661,2021-12-08 08:00,1.0,,,,238,450,688,,,,,,,
100024661,2021-12-08 09:00,1.0,,,,234,300,534,,,,,,,
100024661,2021-12-08 10:00,1.0,,,,141,148,289,,,,,,,
100024661,2021-12-08 11:00,1.0,,,,131,151,282,,,,,,,
100024661,2021-12-08 12:00,1.0,,,,138,146,284,,,,,,,
100024661,2021-12-08 13:00,1.0,,,,148,166,314,,,,,,,
100024661,2021-12-08 14:00,1.0,,,,200,159,359,,,,,,,
100024661,2021-12-08 15:00,1.0,,,,250,181,431,,,,,,,
100024661,2021-12-08 16:00,1.0,,,,269,175,444,,,,,,,
100024661,2021-12-08 17:00,1.0,,,,335,221,556,,,,,,,
100024661,2021-12-08 18:00,1.0,,,,397,287,684,,,,,,,
100024661,2021-12-08 19:00,1.0,,,,275,181,456,,,,,,,
100024661,2021-12-08 20:00,1.0,,,,160,125,285,,,,,,,
100024661,2021-12-08 21:00,1.0,,,,92,82,174,,,,,,,
100024661,2021-12-08 22:00,1.0,,,,87,94,181,,,,,,,
100024661,2021-12-08 23:00,1.0,,,,40,59,99,,,,,,,
100024661,2021-12-09 00:00,1.0,,,,26,21,47,,,,,,,
100024661,2021-12-09 01:00,1.0,,,,11,15,26,,,,,,,
100024661,2021-12-09 02:00,1.0,,,,4,6,10,,,,,,,
100024661,2021-12-09 03:00,1.0,,,,1,5,6,,,,,,,
100024661,2021-12-09 04:00,1.0,,,,7,6,13,,,,,,,
100024661,2021-12-09 05:00,1.0,,,,8,24,32,,,,,,,
100024661,2021-12-09 06:00,1.0,,,,34,50,84,,,,,,,
100024661,2021-12-09 07:00,1.0,,,,110,143,253,,,,,,,
100024661,2021-12-09 08:00,1.0,,,,156,206,362,,,,,,,
100024661,2021-12-09 09:00,1.0,,,,119,149,268,,,,,,,
100024661,2021-12-09 10:00,1.0,,,,64,72,136,,,,,,,
100024661,2021-12-09 11:00,1.0,,,,70,46,116,,,,,,,
100024661,2021-12-09 12:00,1.0,,,,90,67,157,,,,,,,
100024661,2021-12-09 13:00,1.0,,,,99,79,178,,,,,,,
100024661,2021-12-09 14:00,1.0,,,,101,109,210,,,,,,,
100024661,2021-12-09 15:00,1.0,,,,141,103,244,,,,,,,
100024661,2021-12-09 16:00,1.0,,,,164,99,263,,,,,,,
100024661,2021-12-09 17:00,1.0,,,,173,113,286,,,,,,,
100024661,2021-12-09 18:00,1.0,,,,194,148,342,,,,,,,
100024661,2021-12-09 19:00,1.0,,,,140,99,239,,,,,,,
100024661,2021-12-09 20:00,1.0,,,,84,69,153,,,,,,,
100024661,2021-12-09 21:00,1.0,,,,60,58,118,,,,,,,
100024661,2021-12-09 22:00,1.0,,,,44,44,88,,,,,,,
100024661,2021-12-09 23:00,1.0,,,,33,32,65,,,,,,,
100024661,2021-12-10 00:00,1.0,,,,14,18,32,,,,,,,
100024661,2021-12-10 01:00,1.0,,,,13,9,22,,,,,,,
100024661,2021-12-10 02:00,1.0,,,,9,3,12,,,,,,,
100024661,2021-12-10 03:00,1.0,,,,4,2,6,,,,,,,
100024661,2021-12-10 04:00,1.0,,,,5,4,9,,,,,,,
100024661,2021-12-10 05:00,1.0,,,,6,9,15,,,,,,,
100024661,2021-12-10 06:00,1.0,,,,19,23,42,,,,,,,
100024661,2021-12-10 07:00,1.0,,,,64,67,131,,,,,,,
100024661,2021-12-10 08:00,1.0,,,,97,116,213,,,,,,,
100024661,2021-12-10 09:00,1.0,,,,100,108,208,,,,,,,
100024661,2021-12-10 10:00,1.0,,,,74,74,148,,,,,,,
100024661,2021-12-10 11:00,1.0,,,,84,58,142,,,,,,,
100024661,2021-12-10 12:00,1.0,,,,107,87,194,,,,,,,
100024661,2021-12-10 13:00,1.0,,,,115,88,203,,,,,,,
100024661,2021-12-10 14:00,1.0,,,,113,108,221,,,,,,,
100024661,2021-12-10 15:00,1.0,,,,141,123,264,,,,,,,
100024661,2021-12-10 16:00,1.0,,,,173,92,265,,,,,,,
100024661,2021-12-10 17:00,1.0,,,,167,102,269,,,,,,,
100024661,2021-12-10 18:00,1.0,,,,165,113,278,,,,,,,
100024661,2021-12-10 19:00,1.0,,,,136,96,232,,,,,,,
100024661,2021-12-10 20:00,1.0,,,,81,88,169,,,,,,,
100024661,2021-12-10 21:00,1.0,,,,52,56,108,,,,,,,
100024661,2021-12-10 22:00,1.0,,,,40,38,78,,,,,,,
100024661,2021-12-10 23:00,1.0,,,,37,40,77,,,,,,,
100024661,2021-12-11 00:00,1.0,,,,26,29,55,,,,,,,
100024661,2021-12-11 01:00,1.0,,,,22,20,42,,,,,,,
100024661,2021-12-11 02:00,1.0,,,,17,9,26,,,,,,,
100024661,2021-12-11 03:00,1.0,,,,10,3,13,,,,,,,
100024661,2021-12-11 04:00,1.0,,,,5,4,9,,,,,,,
100024661,2021-12-11 05:00,1.0,,,,6,0,6,,,,,,,
100024661,2021-12-11 06:00,1.0,,,,18,7,25,,,,,,,
100024661,2021-12-11 07:00,1.0,,,,13,11,24,,,,,,,
100024661,2021-12-11 08:00,1.0,,,,27,19,46,,,,,,,
100024661,2021-12-11 09:00,1.0,,,,68,47,115,,,,,,,
100024661,2021-12-11 10:00,1.0,,,,74,55,129,,,,,,,
100024661,2021-12-11 11:00,1.0,,,,98,84,182,,,,,,,
100024661,2021-12-11 12:00,1.0,,,,89,105,194,,,,,,,
100024661,2021-12-11 13:00,1.0,,,,149,96,245,,,,,,,
100024661,2021-12-11 14:00,1.0,,,,173,122,295,,,,,,,
100024661,2021-12-11 15:00,1.0,,,,150,140,290,,,,,,,
100024661,2021-12-11 16:00,1.0,,,,133,138,271,,,,,,,
100024661,2021-12-11 17:00,1.0,,,,105,116,221,,,,,,,
100024661,2021-12-11 18:00,1.0,,,,139,118,257,,,,,,,
100024661,2021-12-11 19:00,1.0,,,,112,105,217,,,,,,,
100024661,2021-12-11 20:00,1.0,,,,63,81,144,,,,,,,
100024661,2021-12-11 21:00,1.0,,,,38,45,83,,,,,,,
100024661,2021-12-11 22:00,1.0,,,,56,36,92,,,,,,,
100024661,2021-12-11 23:00,1.0,,,,36,43,79,,,,,,,
100024661,2021-12-12 00:00,1.0,,,,36,36,72,,,,,,,
100024661,2021-12-12 01:00,1.0,,,,23,28,51,,,,,,,
100024661,2021-12-12 02:00,1.0,,,,16,18,34,,,,,,,
100024661,2021-12-12 03:00,1.0,,,,8,13,21,,,,,,,
100024661,2021-12-12 04:00,1.0,,,,6,6,12,,,,,,,
100024661,2021-12-12 05:00,1.0,,,,4,5,9,,,,,,,
100024661,2021-12-12 06:00,1.0,,,,7,6,13,,,,,,,
100024661,2021-12-12 07:00,1.0,,,,13,8,21,,,,,,,
100024661,2021-12-12 08:00,1.0,,,,14,8,22,,,,,,,
100024661,2021-12-12 09:00,1.0,,,,46,30,76,,,,,,,
100024661,2021-12-12 10:00,1.0,,,,49,37,86,,,,,,,
100024661,2021-12-12 11:00,1.0,,,,45,50,95,,,,,,,
100024661,2021-12-12 12:00,1.0,,,,54,60,114,,,,,,,
100024661,2021-12-12 13:00,1.0,,,,72,80,152,,,,,,,
100024661,2021-12-12 14:00,1.0,,,,118,92,210,,,,,,,
100024661,2021-12-12 15:00,1.0,,,,102,92,194,,,,,,,
100024661,2021-12-12 16:00,1.0,,,,90,71,161,,,,,,,
100024661,2021-12-12 17:00,1.0,,,,102,81,183,,,,,,,
100024661,2021-12-12 18:00,1.0,,,,76,78,154,,,,,,,
100024661,2021-12-12 19:00,1.0,,,,66,73,139,,,,,,,
100024661,2021-12-12 20:00,1.0,,,,51,52,103,,,,,,,
100024661,2021-12-12 21:00,1.0,,,,42,46,88,,,,,,,
100024661,2021-12-12 22:00,1.0,,,,40,38,78,,,,,,,
100024661,2021-12-12 23:00,1.0,,,,25,25,50,,,,,,,
100024661,2021-12-13 00:00,1.0,,,,14,8,22,,,,,,,
100024661,2021-12-13 01:00,1.0,,,,5,7,12,,,,,,,
100024661,2021-12-13 02:00,1.0,,,,9,2,11,,,,,,,
100024661,2021-12-13 03:00,1.0,,,,3,1,4,,,,,,,
100024661,2021-12-13 04:00,1.0,,,,5,3,8,,,,,,,
100024661,2021-12-13 05:00,1.0,,,,12,14,26,,,,,,,
100024661,2021-12-13 06:00,1.0,,,,35,58,93,,,,,,,
100024661,2021-12-13 07:00,1.0,,,,110,158,268,,,,,,,
100024661,2021-12-13 08:00,1.0,,,,207,394,601,,,,,,,
100024661,2021-12-13 09:00,1.0,,,,206,298,504,,,,,,,
100024661,2021-12-13 10:00,1.0,,,,138,137,275,,,,,,,
100024661,2021-12-13 11:00,1.0,,,,144,131,275,,,,,,,
100024661,2021-12-13 12:00,1.0,,,,137,146,283,,,,,,,
100024661,2021-12-13 13:00,1.0,,,,149,138,287,,,,,,,
100024661,2021-12-13 14:00,1.0,,,,181,146,327,,,,,,,
100024661,2021-12-13 15:00,1.0,,,,199,157,356,,,,,,,
100024661,2021-12-13 16:00,1.0,,,,232,160,392,,,,,,,
100024661,2021-12-13 17:00,1.0,,,,272,162,434,,,,,,,
100024661,2021-12-13 18:00,1.0,,,,323,236,559,,,,,,,
100024661,2021-12-13 19:00,1.0,,,,215,182,397,,,,,,,
100024661,2021-12-13 20:00,1.0,,,,156,114,270,,,,,,,
100024661,2021-12-13 21:00,1.0,,,,88,74,162,,,,,,,
100024661,2021-12-13 22:00,1.0,,,,78,81,159,,,,,,,
100024661,2021-12-13 23:00,1.0,,,,30,37,67,,,,,,,
100024661,2021-12-14 00:00,1.0,,,,16,26,42,,,,,,,
100024661,2021-12-14 01:00,1.0,,,,9,14,23,,,,,,,
100024661,2021-12-14 02:00,1.0,,,,1,5,6,,,,,,,
100024661,2021-12-14 03:00,1.0,,,,3,1,4,,,,,,,
100024661,2021-12-14 04:00,1.0,,,,8,5,13,,,,,,,
100024661,2021-12-14 05:00,1.0,,,,8,20,28,,,,,,,
100024661,2021-12-14 06:00,1.0,,,,39,67,106,,,,,,,
100024661,2021-12-14 07:00,1.0,,,,116,180,296,,,,,,,
100024661,2021-12-14 08:00,1.0,,,,224,423,647,,,,,,,
100024661,2021-12-14 09:00,1.0,,,,232,317,549,,,,,,,
100024661,2021-12-14 10:00,1.0,,,,151,156,307,,,,,,,
100024661,2021-12-14 11:00,1.0,,,,153,142,295,,,,,,,
100024661,2021-12-14 12:00,1.0,,,,160,173,333,,,,,,,
100024661,2021-12-14 13:00,1.0,,,,186,166,352,,,,,,,
100024661,2021-12-14 14:00,1.0,,,,202,162,364,,,,,,,
100024661,2021-12-14 15:00,1.0,,,,257,199,456,,,,,,,
100024661,2021-12-14 16:00,1.0,,,,261,196,457,,,,,,,
100024661,2021-12-14 17:00,1.0,,,,328,213,541,,,,,,,
100024661,2021-12-14 18:00,1.0,,,,394,297,691,,,,,,,
100024661,2021-12-14 19:00,1.0,,,,270,227,497,,,,,,,
100024661,2021-12-14 20:00,1.0,,,,158,151,309,,,,,,,
100024661,2021-12-14 21:00,1.0,,,,127,76,203,,,,,,,
100024661,2021-12-14 22:00,1.0,,,,93,94,187,,,,,,,
100024661,2021-12-14 23:00,1.0,,,,58,61,119,,,,,,,
100024661,2021-12-15 00:00,1.0,,,,39,36,75,,,,,,,
100024661,2021-12-15 01:00,1.0,,,,15,20,35,,,,,,,
100024661,2021-12-15 02:00,1.0,,,,7,9,16,,,,,,,
100024661,2021-12-15 03:00,1.0,,,,6,4,10,,,,,,,
100024661,2021-12-15 04:00,1.0,,,,8,6,14,,,,,,,
100024661,2021-12-15 05:00,1.0,,,,14,24,38,,,,,,,
100024661,2021-12-15 06:00,1.0,,,,42,67,109,,,,,,,
100024661,2021-12-15 07:00,1.0,,,,123,169,292,,,,,,,
100024661,2021-12-15 08:00,1.0,,,,251,405,656,,,,,,,
100024661,2021-12-15 09:00,1.0,,,,244,330,574,,,,,,,
100024661,2021-12-15 10:00,1.0,,,,128,183,311,,,,,,,
100024661,2021-12-15 11:00,1.0,,,,159,158,317,,,,,,,
100024661,2021-12-15 12:00,1.0,,,,206,166,372,,,,,,,
100024661,2021-12-15 13:00,1.0,,,,206,147,353,,,,,,,
100024661,2021-12-15 14:00,1.0,,,,198,208,406,,,,,,,
100024661,2021-12-15 15:00,1.0,,,,257,224,481,,,,,,,
100024661,2021-12-15 16:00,1.0,,,,249,217,466,,,,,,,
100024661,2021-12-15 17:00,1.0,,,,334,230,564,,,,,,,
100024661,2021-12-15 18:00,1.0,,,,421,291,712,,,,,,,
100024661,2021-12-15 19:00,1.0,,,,323,236,559,,,,,,,
100024661,2021-12-15 20:00,1.0,,,,153,143,296,,,,,,,
100024661,2021-12-15 21:00,1.0,,,,118,91,209,,,,,,,
100024661,2021-12-15 22:00,1.0,,,,90,82,172,,,,,,,
100024661,2021-12-15 23:00,1.0,,,,71,76,147,,,,,,,
100024661,2021-12-16 00:00,1.0,,,,41,39,80,,,,,,,
100024661,2021-12-16 01:00,1.0,,,,24,14,38,,,,,,,
100024661,2021-12-16 02:00,1.0,,,,5,11,16,,,,,,,
100024661,2021-12-16 03:00,1.0,,,,4,7,11,,,,,,,
100024661,2021-12-16 04:00,1.0,,,,4,4,8,,,,,,,
100024661,2021-12-16 05:00,1.0,,,,8,27,35,,,,,,,
100024661,2021-12-16 06:00,1.0,,,,45,74,119,,,,,,,
100024661,2021-12-16 07:00,1.0,,,,114,172,286,,,,,,,
100024661,2021-12-16 08:00,1.0,,,,240,393,633,,,,,,,
100024661,2021-12-16 09:00,1.0,,,,232,313,545,,,,,,,
100024661,2021-12-16 10:00,1.0,,,,149,176,325,,,,,,,
100024661,2021-12-16 11:00,1.0,,,,158,144,302,,,,,,,
100024661,2021-12-16 12:00,1.0,,,,177,201,378,,,,,,,
100024661,2021-12-16 13:00,1.0,,,,208,192,400,,,,,,,
100024661,2021-12-16 14:00,1.0,,,,249,204,453,,,,,,,
100024661,2021-12-16 15:00,1.0,,,,322,256,578,,,,,,,
100024661,2021-12-16 16:00,1.0,,,,300,245,545,,,,,,,
100024661,2021-12-16 17:00,1.0,,,,384,238,622,,,,,,,
100024661,2021-12-16 18:00,1.0,,,,373,295,668,,,,,,,
100024661,2021-12-16 19:00,1.0,,,,286,239,525,,,,,,,
100024661,2021-12-16 20:00,1.0,,,,149,141,290,,,,,,,
100024661,2021-12-16 21:00,1.0,,,,108,97,205,,,,,,,
100024661,2021-12-16 22:00,1.0,,,,114,87,201,,,,,,,
100024661,2021-12-16 23:00,1.0,,,,53,73,126,,,,,,,
100024661,2021-12-17 00:00,1.0,,,,48,38,86,,,,,,,
100024661,2021-12-17 01:00,1.0,,,,19,24,43,,,,,,,
100024661,2021-12-17 02:00,1.0,,,,8,12,20,,,,,,,
100024661,2021-12-17 03:00,1.0,,,,10,4,14,,,,,,,
100024661,2021-12-17 04:00,1.0,,,,8,6,14,,,,,,,
100024661,2021-12-17 05:00,1.0,,,,9,19,28,,,,,,,
100024661,2021-12-17 06:00,1.0,,,,34,47,81,,,,,,,
100024661,2021-12-17 07:00,1.0,,,,110,129,239,,,,,,,
100024661,2021-12-17 08:00,1.0,,,,160,301,461,,,,,,,
100024661,2021-12-17 09:00,1.0,,,,236,242,478,,,,,,,
100024661,2021-12-17 10:00,1.0,,,,147,177,324,,,,,,,
100024661,2021-12-17 11:00,1.0,,,,171,178,349,,,,,,,
100024661,2021-12-17 12:00,1.0,,,,179,196,375,,,,,,,
100024661,2021-12-17 13:00,1.0,,,,233,202,435,,,,,,,
100024661,2021-12-17 14:00,1.0,,,,238,186,424,,,,,,,
100024661,2021-12-17 15:00,1.0,,,,269,209,478,,,,,,,
100024661,2021-12-17 16:00,1.0,,,,284,219,503,,,,,,,
100024661,2021-12-17 17:00,1.0,,,,279,219,498,,,,,,,
100024661,2021-12-17 18:00,1.0,,,,293,216,509,,,,,,,
100024661,2021-12-17 19:00,1.0,,,,199,187,386,,,,,,,
100024661,2021-12-17 20:00,1.0,,,,132,137,269,,,,,,,
100024661,2021-12-17 21:00,1.0,,,,74,94,168,,,,,,,
100024661,2021-12-17 22:00,1.0,,,,80,60,140,,,,,,,
100024661,2021-12-17 23:00,1.0,,,,72,75,147,,,,,,,
100024661,2021-12-18 00:00,1.0,,,,54,48,102,,,,,,,
100024661,2021-12-18 01:00,1.0,,,,32,36,68,,,,,,,
100024661,2021-12-18 02:00,1.0,,,,32,22,54,,,,,,,
100024661,2021-12-18 03:00,1.0,,,,16,12,28,,,,,,,
100024661,2021-12-18 04:00,1.0,,,,12,12,24,,,,,,,
100024661,2021-12-18 05:00,1.0,,,,7,12,19,,,,,,,
100024661,2021-12-18 06:00,1.0,,,,12,6,18,,,,,,,
100024661,2021-12-18 07:00,1.0,,,,13,10,23,,,,,,,
100024661,2021-12-18 08:00,1.0,,,,33,27,60,,,,,,,
100024661,2021-12-18 09:00,1.0,,,,70,57,127,,,,,,,
100024661,2021-12-18 10:00,1.0,,,,83,73,156,,,,,,,
100024661,2021-12-18 11:00,1.0,,,,125,74,199,,,,,,,
100024661,2021-12-18 12:00,1.0,,,,170,119,289,,,,,,,
100024661,2021-12-18 13:00,1.0,,,,145,162,307,,,,,,,
100024661,2021-12-18 14:00,1.0,,,,185,144,329,,,,,,,
100024661,2021-12-18 15:00,1.0,,,,171,154,325,,,,,,,
100024661,2021-12-18 16:00,1.0,,,,165,138,303,,,,,,,
100024661,2021-12-18 17:00,1.0,,,,169,121,290,,,,,,,
100024661,2021-12-18 18:00,1.0,,,,141,154,295,,,,,,,
100024661,2021-12-18 19:00,1.0,,,,108,123,231,,,,,,,
100024661,2021-12-18 20:00,1.0,,,,73,109,182,,,,,,,
100024661,2021-12-18 21:00,1.0,,,,65,51,116,,,,,,,
100024661,2021-12-18 22:00,1.0,,,,59,56,115,,,,,,,
100024661,2021-12-18 23:00,1.0,,,,51,48,99,,,,,,,
100024661,2021-12-19 00:00,1.0,,,,41,39,80,,,,,,,
100024661,2021-12-19 01:00,1.0,,,,28,30,58,,,,,,,
100024661,2021-12-19 02:00,1.0,,,,20,21,41,,,,,,,
100024661,2021-12-19 03:00,1.0,,,,18,9,27,,,,,,,
100024661,2021-12-19 04:00,1.0,,,,9,2,11,,,,,,,
100024661,2021-12-19 05:00,1.0,,,,13,11,24,,,,,,,
100024661,2021-12-19 06:00,1.0,,,,4,4,8,,,,,,,
100024661,2021-12-19 07:00,1.0,,,,8,8,16,,,,,,,
100024661,2021-12-19 08:00,1.0,,,,19,13,32,,,,,,,
100024661,2021-12-19 09:00,1.0,,,,36,27,63,,,,,,,
100024661,2021-12-19 10:00,1.0,,,,56,47,103,,,,,,,
100024661,2021-12-19 11:00,1.0,,,,43,37,80,,,,,,,
100024661,2021-12-19 12:00,1.0,,,,64,70,134,,,,,,,
100024661,2021-12-19 13:00,1.0,,,,74,86,160,,,,,,,
100024661,2021-12-19 14:00,1.0,,,,92,70,162,,,,,,,
100024661,2021-12-19 15:00,1.0,,,,79,73,152,,,,,,,
100024661,2021-12-19 16:00,1.0,,,,53,66,119,,,,,,,
100024661,2021-12-19 17:00,1.0,,,,52,65,117,,,,,,,
100024661,2021-12-19 18:00,1.0,,,,84,71,155,,,,,,,
100024661,2021-12-19 19:00,1.0,,,,58,62,120,,,,,,,
100024661,2021-12-19 20:00,1.0,,,,39,27,66,,,,,,,
100024661,2021-12-19 21:00,1.0,,,,33,31,64,,,,,,,
100024661,2021-12-19 22:00,1.0,,,,33,31,64,,,,,,,